CCA0830 ZBAD-ZUUU

Flight info

Callsign CCA0830
Flight time N/A
Altitude 34100
Route PEGSO B215 GODON W43 SAVPA W276 ANRUG W279 ONEBA G212 SUBUL W230 AKDIK
Aircraft A320/L-V/N

Departure

Time 2026-05-06 11:12
Airport Beijing Daxing International Airport (ZBAD)

Arrival

Time N/A
Airport Chengdu Shuangliu International Airport (ZUUU)
Time Latitude Longitude Altitude Speed Heading
2026-05-06 10:52 39.51531 116.40143 108 ft 0 kts 83°
2026-05-06 11:01 39.51530 116.40140 108 ft 1 kts 83°
2026-05-06 11:02 39.51529 116.40116 108 ft 3 kts 85°
2026-05-06 11:02 39.51527 116.40091 108 ft 2 kts 83°
2026-05-06 11:02 39.51524 116.40065 107 ft 2 kts 76°
2026-05-06 11:02 39.51518 116.40040 107 ft 3 kts 66°
2026-05-06 11:03 39.51509 116.40017 106 ft 3 kts 48°
2026-05-06 11:03 39.51495 116.40002 108 ft 2 kts
2026-05-06 11:03 39.51488 116.40001 107 ft 1 kts 353°
2026-05-06 11:06 39.51492 116.40000 108 ft 2 kts 353°
2026-05-06 11:06 39.51538 116.39993 108 ft 12 kts 353°
2026-05-06 11:06 39.51618 116.39980 108 ft 13 kts 353°
2026-05-06 11:07 39.51625 116.39978 107 ft 0 kts 353°
2026-05-06 11:07 39.51638 116.39976 108 ft 4 kts 353°
2026-05-06 11:07 39.51675 116.39970 108 ft 7 kts 353°
2026-05-06 11:07 39.51718 116.39938 107 ft 8 kts 299°
2026-05-06 11:08 39.51727 116.39869 107 ft 9 kts 304°
2026-05-06 11:08 39.51778 116.39831 108 ft 10 kts 325°
2026-05-06 11:08 39.51798 116.39784 108 ft 6 kts 274°
2026-05-06 11:08 39.51797 116.39771 108 ft 0 kts 263°
2026-05-06 11:09 39.51795 116.39758 108 ft 3 kts 263°
2026-05-06 11:09 39.51793 116.39735 108 ft 0 kts 263°
2026-05-06 11:10 39.51792 116.39728 108 ft 2 kts 262°
2026-05-06 11:10 39.51788 116.39696 108 ft 5 kts 261°
2026-05-06 11:10 39.51783 116.39643 108 ft 4 kts 262°
2026-05-06 11:10 39.51777 116.39624 108 ft 2 kts 225°
2026-05-06 11:11 39.51758 116.39615 108 ft 4 kts 191°
2026-05-06 11:11 39.51723 116.39622 108 ft 7 kts 169°
2026-05-06 11:11 39.51529 116.39655 109 ft 61 kts 172°
2026-05-06 11:11 39.51163 116.39733 107 ft 100 kts 171°
2026-05-06 11:12 39.50879 116.39776 106 ft 119 kts 175°
2026-05-06 11:12 39.49865 116.39934 108 ft 162 kts 172°
2026-05-06 11:12 39.48715 116.40149 564 ft 165 kts 170°
2026-05-06 11:12 39.47584 116.40322 1235 ft 162 kts 176°
2026-05-06 11:13 39.46499 116.40469 2059 ft 156 kts 178°
2026-05-06 11:13 39.45358 116.40618 2516 ft 175 kts 178°
2026-05-06 11:13 39.44193 116.40778 2926 ft 194 kts 177°
2026-05-06 11:13 39.42781 116.40988 3347 ft 216 kts 176°
2026-05-06 11:14 39.41217 116.41231 3780 ft 239 kts 176°
2026-05-06 11:14 39.39499 116.41502 4417 ft 252 kts 176°
2026-05-06 11:14 39.37742 116.41784 5245 ft 261 kts 176°
2026-05-06 11:14 39.35899 116.41928 5941 ft 268 kts 190°
2026-05-06 11:15 39.34147 116.41134 6667 ft 269 kts 217°
2026-05-06 11:15 39.32856 116.39415 7387 ft 269 kts 240°
2026-05-06 11:15 39.31929 116.37289 7727 ft 274 kts 243°
2026-05-06 11:15 39.31066 116.35219 7855 ft 273 kts 243°
2026-05-06 11:16 39.30183 116.33097 7886 ft 271 kts 243°
2026-05-06 11:16 39.29270 116.30923 7887 ft 273 kts 243°
2026-05-06 11:16 39.28359 116.28771 7887 ft 272 kts 243°
2026-05-06 11:16 39.27447 116.26631 7890 ft 272 kts 243°
2026-05-06 11:17 39.27173 116.25989 7892 ft 273 kts 243°
2026-05-06 11:17 39.27003 116.25590 7890 ft 273 kts 243°
2026-05-06 11:17 39.26163 116.23624 7890 ft 273 kts 243°
2026-05-06 11:18 39.25283 116.21567 7892 ft 273 kts 243°
2026-05-06 11:18 39.24365 116.19422 7892 ft 273 kts 243°
2026-05-06 11:18 39.23494 116.17384 7892 ft 273 kts 243°
2026-05-06 11:18 39.22598 116.15290 7895 ft 274 kts 243°
2026-05-06 11:19 39.21677 116.13144 7897 ft 274 kts 243°
2026-05-06 11:19 39.20764 116.11018 7895 ft 275 kts 243°
2026-05-06 11:19 39.19836 116.08858 7918 ft 276 kts 243°
2026-05-06 11:19 39.18919 116.06723 8288 ft 279 kts 243°
2026-05-06 11:20 39.17994 116.04575 9130 ft 278 kts 244°
2026-05-06 11:20 39.17049 116.02383 10004 ft 282 kts 244°
2026-05-06 11:20 39.16080 116.00128 10557 ft 296 kts 244°
2026-05-06 11:20 39.15045 115.97719 10827 ft 319 kts 244°
2026-05-06 11:21 39.13941 115.95161 11287 ft 331 kts 243°
2026-05-06 11:21 39.12812 115.92565 12131 ft 332 kts 243°
2026-05-06 11:21 39.11683 115.89969 12980 ft 333 kts 243°
2026-05-06 11:21 39.10546 115.87354 13781 ft 336 kts 244°
2026-05-06 11:22 39.09400 115.84718 14476 ft 339 kts 243°
2026-05-06 11:22 39.08261 115.82097 15177 ft 341 kts 243°
2026-05-06 11:22 39.07098 115.79423 15852 ft 344 kts 243°
2026-05-06 11:22 39.05923 115.76722 16527 ft 347 kts 243°
2026-05-06 11:23 39.04737 115.74000 17188 ft 351 kts 243°
2026-05-06 11:23 39.03541 115.71257 17869 ft 353 kts 243°
2026-05-06 11:23 39.02335 115.68496 18490 ft 356 kts 243°
2026-05-06 11:23 39.01117 115.65710 19055 ft 359 kts 243°
2026-05-06 11:24 38.99888 115.62900 19623 ft 362 kts 243°
2026-05-06 11:24 38.98650 115.60071 20195 ft 364 kts 243°
2026-05-06 11:24 38.97402 115.57223 20750 ft 367 kts 243°
2026-05-06 11:24 38.96142 115.54348 21305 ft 370 kts 243°
2026-05-06 11:25 38.94876 115.51462 21858 ft 373 kts 243°
2026-05-06 11:25 38.93732 115.48471 22421 ft 374 kts 248°
2026-05-06 11:25 38.92671 115.45414 22948 ft 377 kts 248°
2026-05-06 11:25 38.91597 115.42329 23478 ft 380 kts 248°
2026-05-06 11:26 38.90511 115.39222 23936 ft 382 kts 248°
2026-05-06 11:26 38.89421 115.36111 24441 ft 382 kts 248°
2026-05-06 11:26 38.88327 115.32995 24887 ft 384 kts 248°
2026-05-06 11:26 38.87225 115.29859 25316 ft 386 kts 248°
2026-05-06 11:27 38.86116 115.26707 25764 ft 388 kts 248°
2026-05-06 11:27 38.85016 115.23586 26217 ft 389 kts 248°
2026-05-06 11:27 38.83900 115.20418 26629 ft 391 kts 248°
2026-05-06 11:27 38.82760 115.17190 27041 ft 393 kts 248°
2026-05-06 11:28 38.81631 115.13995 27433 ft 395 kts 248°
2026-05-06 11:28 38.80508 115.10818 27850 ft 396 kts 248°
2026-05-06 11:28 38.79368 115.07599 28210 ft 398 kts 248°
2026-05-06 11:28 38.78221 115.04362 28574 ft 400 kts 248°
2026-05-06 11:29 38.77069 115.01117 28922 ft 401 kts 248°
2026-05-06 11:29 38.75911 114.97855 29292 ft 402 kts 248°
2026-05-06 11:29 38.74749 114.94587 29624 ft 404 kts 248°
2026-05-06 11:29 38.73582 114.91302 29947 ft 406 kts 248°
2026-05-06 11:30 38.72405 114.87993 30227 ft 408 kts 248°
2026-05-06 11:30 38.71229 114.84690 30551 ft 408 kts 248°
2026-05-06 11:30 38.70047 114.81374 30828 ft 410 kts 248°
2026-05-06 11:30 38.68859 114.78046 31127 ft 411 kts 248°
2026-05-06 11:31 38.67670 114.74719 31498 ft 410 kts 249°
2026-05-06 11:31 38.66485 114.71411 31920 ft 408 kts 249°
2026-05-06 11:31 38.65314 114.68142 32290 ft 407 kts 249°
2026-05-06 11:31 38.64134 114.64854 32631 ft 406 kts 249°
2026-05-06 11:32 38.62957 114.61575 32973 ft 405 kts 249°
2026-05-06 11:32 38.61782 114.58307 33374 ft 403 kts 249°
2026-05-06 11:32 38.60644 114.55171 33698 ft 402 kts 249°
2026-05-06 11:32 38.59462 114.51924 33938 ft 402 kts 249°
2026-05-06 11:33 38.58302 114.48735 33996 ft 401 kts 249°
2026-05-06 11:33 38.55956 114.42253 34003 ft 399 kts 249°
2026-05-06 11:34 38.53640 114.35861 34006 ft 400 kts 249°
2026-05-06 11:34 38.51304 114.29435 34011 ft 399 kts 249°
2026-05-06 11:35 38.48961 114.23003 34012 ft 400 kts 249°
2026-05-06 11:35 38.46614 114.16576 34021 ft 399 kts 249°
2026-05-06 11:36 38.44262 114.10149 34025 ft 400 kts 249°
2026-05-06 11:36 38.41944 114.03828 34046 ft 398 kts 249°
2026-05-06 11:37 38.39592 113.97417 34047 ft 399 kts 249°
2026-05-06 11:37 38.37243 113.91026 34037 ft 398 kts 249°
2026-05-06 11:38 38.34886 113.84627 34048 ft 399 kts 249°
2026-05-06 11:38 38.32516 113.78250 34050 ft 398 kts 249°
2026-05-06 11:39 38.30113 113.71888 34060 ft 399 kts 249°
2026-05-06 11:39 38.27715 113.65552 34065 ft 397 kts 249°
2026-05-06 11:40 38.25320 113.59220 34072 ft 398 kts 249°
2026-05-06 11:40 38.22917 113.52882 34070 ft 397 kts 249°
2026-05-06 11:41 38.20513 113.46554 34074 ft 397 kts 249°
2026-05-06 11:41 38.18129 113.40286 34090 ft 396 kts 249°
2026-05-06 11:42 38.15734 113.33992 34085 ft 395 kts 249°
2026-05-06 11:42 38.13390 113.27683 34088 ft 395 kts 249°
2026-05-06 11:43 38.11047 113.21382 34091 ft 394 kts 249°
2026-05-06 11:43 38.08702 113.15102 34101 ft 394 kts 249°
2026-05-06 11:44 38.05200 113.05768 34093 ft 392 kts 249°
2026-05-06 11:44 38.02856 112.99533 34105 ft 392 kts 249°
2026-05-06 11:45 38.00512 112.93309 34099 ft 391 kts 249°
2026-05-06 11:45 37.98166 112.87094 34097 ft 390 kts 249°
2026-05-06 11:46 37.95820 112.80890 34096 ft 390 kts 249°
2026-05-06 11:46 37.93870 112.75743 34091 ft 391 kts 249°
2026-05-06 11:47 37.91119 112.68499 34094 ft 389 kts 248°
2026-05-06 11:47 37.89165 112.63362 34094 ft 390 kts 248°
2026-05-06 11:48 37.86797 112.57183 34093 ft 390 kts 247°
2026-05-06 11:48 37.84229 112.51121 34093 ft 391 kts 246°
2026-05-06 11:49 37.81629 112.45076 34091 ft 391 kts 246°
2026-05-06 11:49 37.79049 112.39014 34099 ft 391 kts 246°
2026-05-06 11:50 37.76497 112.32944 34100 ft 388 kts 248°
2026-05-06 11:50 37.74169 112.26787 34105 ft 389 kts 249°
2026-05-06 11:51 37.71845 112.20607 34102 ft 389 kts 248°
2026-05-06 11:51 37.69495 112.14458 34113 ft 389 kts 248°
2026-05-06 11:52 37.67165 112.08391 34115 ft 388 kts 248°
2026-05-06 11:52 37.64804 112.02260 34117 ft 388 kts 248°
2026-05-06 11:53 37.62458 111.96178 34114 ft 386 kts 248°
2026-05-06 11:53 37.60118 111.90122 34119 ft 387 kts 248°
2026-05-06 11:54 37.57761 111.84034 34121 ft 385 kts 248°
2026-05-06 11:54 37.55416 111.77986 34120 ft 381 kts 248°
2026-05-06 11:55 37.53100 111.72037 34125 ft 379 kts 248°
2026-05-06 11:55 37.50679 111.66145 34131 ft 383 kts 243°
2026-05-06 11:56 37.47711 111.60562 34131 ft 384 kts 241°
2026-05-06 11:56 37.44735 111.55026 34130 ft 383 kts 241°
2026-05-06 11:57 37.41743 111.49459 34133 ft 383 kts 241°
2026-05-06 11:57 37.38755 111.43908 34131 ft 383 kts 241°
2026-05-06 11:58 37.35756 111.38349 34135 ft 383 kts 241°
2026-05-06 11:58 37.32785 111.32851 34130 ft 383 kts 241°
2026-05-06 11:59 37.29847 111.27424 34129 ft 383 kts 241°
2026-05-06 11:59 37.26848 111.21895 34131 ft 383 kts 241°
2026-05-06 12:00 37.23853 111.16379 34133 ft 382 kts 241°
2026-05-06 12:00 37.20859 111.10875 34134 ft 382 kts 241°
2026-05-06 12:01 37.17856 111.05362 34131 ft 382 kts 241°
2026-05-06 12:01 37.14854 110.99862 34128 ft 382 kts 241°
2026-05-06 12:02 37.11847 110.94361 34128 ft 383 kts 241°
2026-05-06 12:02 37.08850 110.88888 34129 ft 383 kts 241°
2026-05-06 12:03 37.05833 110.83387 34124 ft 383 kts 241°
2026-05-06 12:03 37.02810 110.77885 34121 ft 384 kts 241°
2026-05-06 12:04 36.99850 110.72505 34125 ft 384 kts 241°
2026-05-06 12:04 36.96963 110.67132 34114 ft 383 kts 242°
2026-05-06 12:05 36.94011 110.61568 34112 ft 384 kts 242°
2026-05-06 12:05 36.91042 110.56006 34112 ft 384 kts 241°
2026-05-06 12:06 36.88066 110.50451 34109 ft 385 kts 241°
2026-05-06 12:06 36.85087 110.44902 34115 ft 385 kts 241°
2026-05-06 12:07 36.82129 110.39400 34110 ft 385 kts 241°
2026-05-06 12:07 36.79167 110.33899 34108 ft 386 kts 241°
2026-05-06 12:08 36.76193 110.28380 34108 ft 387 kts 241°
2026-05-06 12:08 36.73180 110.22803 34109 ft 388 kts 240°
2026-05-06 12:09 36.70159 110.17224 34111 ft 388 kts 240°
2026-05-06 12:09 36.67136 110.11646 34112 ft 389 kts 240°
2026-05-06 12:10 36.64101 110.06057 34122 ft 389 kts 240°
2026-05-06 12:10 36.61061 110.00468 34122 ft 390 kts 240°
2026-05-06 12:11 36.58017 109.94878 34126 ft 390 kts 240°
2026-05-06 12:11 36.55010 109.89366 34128 ft 390 kts 240°
2026-05-06 12:12 36.51951 109.83770 34122 ft 391 kts 240°
2026-05-06 12:12 36.48912 109.78222 34128 ft 390 kts 240°
2026-05-06 12:13 36.45856 109.72644 34132 ft 391 kts 240°
2026-05-06 12:13 36.42790 109.67058 34136 ft 392 kts 240°
2026-05-06 12:14 36.39748 109.61529 34137 ft 392 kts 240°
2026-05-06 12:14 36.36668 109.55939 34137 ft 392 kts 240°
2026-05-06 12:15 36.33589 109.50357 34135 ft 392 kts 240°
2026-05-06 12:15 36.30516 109.44807 34133 ft 392 kts 239°
2026-05-06 12:16 36.26727 109.39838 34138 ft 403 kts 225°
2026-05-06 12:16 36.21913 109.36245 34137 ft 416 kts 213°
2026-05-06 12:17 36.16689 109.33136 34139 ft 417 kts 213°
2026-05-06 12:17 36.11722 109.30160 34138 ft 418 kts 213°
2026-05-06 12:18 36.06509 109.27042 34149 ft 419 kts 213°
2026-05-06 12:18 36.01254 109.23905 34138 ft 420 kts 213°
2026-05-06 12:19 35.95980 109.20761 34137 ft 420 kts 213°
2026-05-06 12:19 35.90857 109.17709 34138 ft 421 kts 213°
2026-05-06 12:20 35.85573 109.14565 34143 ft 422 kts 213°
2026-05-06 12:20 35.80035 109.11933 34137 ft 428 kts 207°
2026-05-06 12:21 35.74488 109.09474 34144 ft 429 kts 207°
2026-05-06 12:21 35.68948 109.07012 34144 ft 429 kts 207°
2026-05-06 12:22 35.63331 109.04517 34146 ft 429 kts 207°
2026-05-06 12:22 35.57708 109.02023 34146 ft 430 kts 207°
2026-05-06 12:23 35.52195 108.99582 34151 ft 430 kts 207°
2026-05-06 12:23 35.46562 108.97091 34152 ft 431 kts 207°
2026-05-06 12:24 35.40923 108.94602 34155 ft 431 kts 207°
2026-05-06 12:24 35.35275 108.92112 34155 ft 432 kts 207°
2026-05-06 12:25 35.29678 108.89649 34151 ft 433 kts 207°
2026-05-06 12:25 35.23999 108.87152 34156 ft 433 kts 207°
2026-05-06 12:26 35.18331 108.84665 34155 ft 433 kts 207°
2026-05-06 12:26 35.12798 108.82241 34160 ft 433 kts 207°
2026-05-06 12:27 35.07104 108.79750 34149 ft 434 kts 207°
2026-05-06 12:27 35.01410 108.77262 34151 ft 435 kts 207°
2026-05-06 12:28 34.95717 108.74779 34151 ft 435 kts 207°
2026-05-06 12:28 34.90038 108.72305 34146 ft 435 kts 207°
2026-05-06 12:29 34.84334 108.69824 34145 ft 436 kts 207°
2026-05-06 12:29 34.78618 108.67341 34141 ft 436 kts 207°
2026-05-06 12:30 34.72901 108.64861 34141 ft 436 kts 206°
2026-05-06 12:30 34.67206 108.62395 34139 ft 436 kts 206°
2026-05-06 12:31 34.62457 108.60342 34140 ft 436 kts 206°
2026-05-06 12:31 34.56737 108.57871 34139 ft 436 kts 206°
2026-05-06 12:32 34.51015 108.55403 34143 ft 437 kts 206°
2026-05-06 12:32 34.45285 108.52935 34140 ft 436 kts 206°
2026-05-06 12:33 34.38687 108.50099 34142 ft 437 kts 206°
2026-05-06 12:33 34.33914 108.48049 34140 ft 437 kts 206°
2026-05-06 12:34 34.28213 108.45605 34140 ft 437 kts 206°
2026-05-06 12:34 34.22500 108.43159 34136 ft 437 kts 206°
2026-05-06 12:35 34.16759 108.40705 34136 ft 437 kts 206°
2026-05-06 12:35 34.11005 108.38248 34144 ft 437 kts 206°
2026-05-06 12:36 34.05265 108.35802 34148 ft 438 kts 206°
2026-05-06 12:36 33.99516 108.33355 34151 ft 438 kts 205°
2026-05-06 12:37 33.93864 108.30953 34153 ft 437 kts 205°
2026-05-06 12:37 33.88131 108.28519 34161 ft 438 kts 205°
2026-05-06 12:38 33.82380 108.26079 34151 ft 438 kts 205°
2026-05-06 12:38 33.76817 108.23724 34160 ft 438 kts 205°
2026-05-06 12:39 33.71066 108.21294 34152 ft 438 kts 205°
2026-05-06 12:39 33.65307 108.18862 34151 ft 438 kts 205°
2026-05-06 12:40 33.59555 108.16438 34143 ft 438 kts 205°
2026-05-06 12:40 33.53804 108.14018 34134 ft 438 kts 205°
2026-05-06 12:41 33.48171 108.11650 34131 ft 437 kts 204°
2026-05-06 12:41 33.42619 108.08990 34125 ft 433 kts 213°
2026-05-06 12:42 33.37628 108.05055 34123 ft 427 kts 221°
2026-05-06 12:42 33.32995 108.00584 34119 ft 428 kts 224°
2026-05-06 12:43 33.28609 107.95804 34121 ft 424 kts 233°
2026-05-06 12:43 33.24778 107.90432 34114 ft 424 kts 232°
2026-05-06 12:44 33.20944 107.85071 34112 ft 424 kts 232°
2026-05-06 12:44 33.17106 107.79709 34113 ft 425 kts 232°
2026-05-06 12:45 33.13290 107.74388 34104 ft 425 kts 232°
2026-05-06 12:46 33.07511 107.66342 34113 ft 426 kts 232°
2026-05-06 12:46 33.03645 107.60970 34103 ft 427 kts 232°
2026-05-06 12:47 32.99772 107.55598 34109 ft 427 kts 232°
2026-05-06 12:47 32.96181 107.50003 34110 ft 424 kts 240°
2026-05-06 12:48 32.93016 107.44136 34111 ft 424 kts 240°
2026-05-06 12:48 32.89826 107.38225 34113 ft 424 kts 240°
2026-05-06 12:49 32.86621 107.32296 34112 ft 424 kts 240°
2026-05-06 12:49 32.83420 107.26388 34114 ft 425 kts 240°
2026-05-06 12:50 32.80210 107.20473 34110 ft 426 kts 240°
2026-05-06 12:50 32.76989 107.14547 34112 ft 426 kts 239°
2026-05-06 12:51 32.73805 107.08698 34108 ft 426 kts 239°
2026-05-06 12:51 32.70618 107.02852 34108 ft 427 kts 239°
2026-05-06 12:52 32.67389 106.96940 34108 ft 426 kts 239°
2026-05-06 12:52 32.64159 106.91035 34103 ft 427 kts 239°
2026-05-06 12:53 32.60927 106.85136 34100 ft 426 kts 239°
2026-05-06 12:53 32.57690 106.79237 34097 ft 427 kts 239°
2026-05-06 12:54 32.54440 106.73323 34096 ft 428 kts 239°
2026-05-06 12:54 32.51193 106.67423 34087 ft 428 kts 239°
2026-05-06 12:55 32.48031 106.61688 34084 ft 429 kts 239°
2026-05-06 12:55 32.44959 106.56123 33828 ft 428 kts 239°
2026-05-06 12:55 32.43326 106.53168 33565 ft 428 kts 239°
2026-05-06 12:56 32.41693 106.50218 33303 ft 429 kts 239°
2026-05-06 12:56 32.40069 106.47283 33043 ft 430 kts 239°
2026-05-06 12:56 32.38423 106.44315 32791 ft 431 kts 239°
2026-05-06 12:56 32.36781 106.41353 32536 ft 432 kts 239°
2026-05-06 12:57 32.35124 106.38368 32285 ft 433 kts 239°
2026-05-06 12:57 32.33469 106.35387 32033 ft 434 kts 239°
2026-05-06 12:57 32.31810 106.32401 31778 ft 435 kts 239°
2026-05-06 12:57 32.30144 106.29407 31537 ft 436 kts 239°
2026-05-06 12:58 32.28475 106.26408 31298 ft 438 kts 239°
2026-05-06 12:58 32.26798 106.23399 31057 ft 438 kts 239°
2026-05-06 12:58 32.25197 106.20528 30823 ft 438 kts 239°
2026-05-06 12:58 32.23462 106.17420 30579 ft 439 kts 239°
2026-05-06 12:59 32.21778 106.14405 30343 ft 438 kts 239°
2026-05-06 12:59 32.20103 106.11409 30103 ft 437 kts 239°
2026-05-06 12:59 32.18432 106.08422 29856 ft 435 kts 239°
2026-05-06 12:59 32.16765 106.05443 29594 ft 434 kts 239°
2026-05-06 13:00 32.15123 106.02511 29321 ft 433 kts 239°
2026-05-06 13:00 32.13483 105.99585 29047 ft 431 kts 239°
2026-05-06 13:00 32.11813 105.96609 28716 ft 430 kts 239°
2026-05-06 13:00 32.10161 105.93666 28229 ft 429 kts 239°
2026-05-06 13:01 32.08526 105.90757 27721 ft 426 kts 238°
2026-05-06 13:01 32.06897 105.87860 27218 ft 421 kts 238°
2026-05-06 13:01 32.05288 105.85002 26725 ft 417 kts 238°
2026-05-06 13:01 32.03692 105.82166 26236 ft 414 kts 238°
2026-05-06 13:02 32.02100 105.79340 25777 ft 412 kts 238°
2026-05-06 13:02 32.00517 105.76533 25306 ft 410 kts 238°
2026-05-06 13:02 31.98946 105.73749 24845 ft 407 kts 238°
2026-05-06 13:02 31.97479 105.71152 24429 ft 404 kts 238°
2026-05-06 13:03 31.95927 105.68405 23977 ft 402 kts 238°
2026-05-06 13:03 31.94383 105.65676 23545 ft 399 kts 238°
2026-05-06 13:03 31.92848 105.62962 23017 ft 396 kts 238°
2026-05-06 13:03 31.91323 105.60271 22510 ft 394 kts 238°
2026-05-06 13:04 31.89804 105.57591 21995 ft 393 kts 238°
2026-05-06 13:04 31.88308 105.54954 21509 ft 392 kts 238°
2026-05-06 13:04 31.86796 105.52292 21023 ft 390 kts 237°
2026-05-06 13:04 31.85289 105.49639 20533 ft 389 kts 237°
2026-05-06 13:05 31.83791 105.47005 20056 ft 386 kts 238°
2026-05-06 13:05 31.82306 105.44395 19594 ft 384 kts 238°
2026-05-06 13:05 31.80820 105.41785 19129 ft 383 kts 238°
2026-05-06 13:05 31.79339 105.39186 18678 ft 381 kts 238°
2026-05-06 13:06 31.77870 105.36610 18228 ft 378 kts 238°
2026-05-06 13:06 31.76406 105.34044 17716 ft 378 kts 238°
2026-05-06 13:06 31.74945 105.31484 17195 ft 376 kts 238°
2026-05-06 13:06 31.73489 105.28934 16704 ft 375 kts 238°
2026-05-06 13:07 31.72038 105.26395 16211 ft 374 kts 238°
2026-05-06 13:07 31.70593 105.23866 15726 ft 372 kts 238°
2026-05-06 13:07 31.69153 105.21350 15248 ft 371 kts 238°
2026-05-06 13:07 31.67731 105.18833 14769 ft 369 kts 239°
2026-05-06 13:08 31.66373 105.16289 14316 ft 366 kts 240°
2026-05-06 13:08 31.65043 105.13748 13843 ft 364 kts 240°
2026-05-06 13:08 31.63761 105.11302 13365 ft 365 kts 240°
2026-05-06 13:08 31.62448 105.08813 12861 ft 363 kts 240°
2026-05-06 13:09 31.61112 105.06293 12355 ft 364 kts 240°
2026-05-06 13:09 31.59773 105.03779 11866 ft 364 kts 240°
2026-05-06 13:09 31.58291 105.01377 11371 ft 365 kts 232°
2026-05-06 13:09 31.56504 104.99269 10937 ft 366 kts 222°
2026-05-06 13:10 31.54557 104.97352 10792 ft 366 kts 222°
2026-05-06 13:10 31.52662 104.95462 10802 ft 368 kts 223°
2026-05-06 13:10 31.50717 104.93514 10800 ft 368 kts 223°
2026-05-06 13:10 31.48767 104.91558 10802 ft 368 kts 223°
2026-05-06 13:11 31.46818 104.89607 10812 ft 368 kts 222°
2026-05-06 13:11 31.44886 104.87673 10803 ft 369 kts 222°
2026-05-06 13:11 31.42938 104.85726 10804 ft 368 kts 222°
2026-05-06 13:11 31.40988 104.83778 10809 ft 368 kts 222°
2026-05-06 13:12 31.39065 104.81859 10807 ft 368 kts 222°
2026-05-06 13:12 31.37117 104.79914 10802 ft 368 kts 222°
2026-05-06 13:12 31.35167 104.77969 10805 ft 368 kts 222°
2026-05-06 13:12 31.33214 104.76020 10808 ft 369 kts 222°
2026-05-06 13:13 31.31261 104.74075 10812 ft 368 kts 222°
2026-05-06 13:13 31.29306 104.72129 10806 ft 369 kts 222°
2026-05-06 13:13 31.27352 104.70185 10806 ft 368 kts 222°
2026-05-06 13:13 31.25400 104.68243 10736 ft 369 kts 222°
2026-05-06 13:14 31.23452 104.66362 10538 ft 362 kts 217°
2026-05-06 13:14 31.21385 104.64767 10374 ft 350 kts 213°
2026-05-06 13:14 31.19448 104.63310 10211 ft 339 kts 214°
2026-05-06 13:14 31.17561 104.61885 10050 ft 327 kts 214°
2026-05-06 13:15 31.15675 104.60456 9897 ft 326 kts 214°
2026-05-06 13:15 31.13874 104.59091 9722 ft 327 kts 214°
2026-05-06 13:15 31.11968 104.57645 9530 ft 326 kts 213°
2026-05-06 13:15 31.10128 104.56254 9363 ft 321 kts 213°
2026-05-06 13:16 31.08270 104.54852 9195 ft 323 kts 213°
2026-05-06 13:16 31.06376 104.53423 9007 ft 324 kts 213°
2026-05-06 13:16 31.04483 104.51997 8846 ft 323 kts 213°
2026-05-06 13:16 31.02599 104.50577 8662 ft 320 kts 213°
2026-05-06 13:17 31.00730 104.49169 8489 ft 320 kts 213°
2026-05-06 13:17 30.98867 104.47766 8313 ft 317 kts 213°
2026-05-06 13:17 30.97023 104.46380 8137 ft 314 kts 213°
2026-05-06 13:17 30.95181 104.44994 7966 ft 316 kts 212°
2026-05-06 13:18 30.93418 104.43668 7805 ft 316 kts 212°
2026-05-06 13:18 30.91681 104.42363 7637 ft 314 kts 212°
2026-05-06 13:19 30.91298 104.42076 7594 ft 314 kts 212°